OneWeb SL0356

operational
NORAD ID: 49283 Int'l Des: 2021-090 Owner: ONEWEBN Country: UK Constellation: oneweb
LEOCIRCULARPOLARONEWEB_TYPE

Über OneWeb SL0356

Beschreibung wird geladen...

Live-Position

3D-Globus wird geladen...

Nächste Überflüge

Höhenverlauf

Altitude vs Time

uPlot chart will show altitude changes over time

Zweizeiliger Elementsatz

1 49283U 21090E 25351.40988630 .00000084 00000-0 17454-3 0 9998
2 49283 87.9208 310.6866 0002449 99.9364 260.2046 13.20770935205836
Epoch: 17. Dez. 2025 • Age: 12 hours

Aktueller Status

Höhe 1203.1 km
Geschwindigkeit 7.25 km/s
Subsatellitenpunkt -51.60°S, 77.71°E
Startdatum 14. Okt. 2021
Alter 4.1 years
Typ internet

Technische Details

Klassifizierung Payload
Masse 148.00 kg
Trockenmasse 140.00 kg
Gesamtmasse 148.00 kg
Länge 1.30 m
Durchmesser 1.00 m
Spannweite 5.00 m
Form Trapezoid+2 pan
Hersteller ONEWUS
Bus-Typ ARROW
Phasenstatus In Orbit
Besitzer/Staat ONEWEBN/UK

Große Konstellationen

Loading constellations...